Weather History for Brownwood, TX

Change the Weather History Date:

Wednesday, January 29, 2014

  Actual Average (KABI) Record (KABI)
Temperature  
Mean Temperature 28 °F 46 °F  
Max Temperature 46 °F 58 °F 84 °F (1967)
Min Temperature 10 °F 34 °F 8 °F (1966)
Degree Days  
Heating Degree Days 37 19  
Month to date heating degree days 586  
Since 1 July heating degree days 1631  
Cooling Degree Days 0 0  
Month to date cooling degree days 0  
Year to date cooling degree days 0  
Moisture  
Dew Point 9 °F    
Average Humidity 46    
Maximum Humidity 85    
Minimum Humidity 22    
Precipitation  
Precipitation 0.00 in 0.04 in 1.82 in (1999)
Month to date precipitation 0.94  
Year to date precipitation 0.94  
Sea Level Pressure  
Sea Level Pressure 30.30 in    
Wind  
Wind Speed 5 mph (SSE)    
Max Wind Speed 17 mph    
Max Gust Speed 21 mph    
Visibility 10 miles    
Events      
T = Trace of Precipitation, MM = Missing Value Source: NWS Daily Summary

Daily Weather History Graph

Daily Weather History Graph

Search for Another Location

Airport:

Trip Planner

Search our weather history database for the weather conditions in past years. The results will help you decide how hot, cold, wet, or windy it might be!

Date:

Astronomy

Jan. 29, 2014 Rise Set
Actual Time 7:30 AM CST 6:07 PM CST
Civil Twilight 7:05 AM CST 6:33 PM CST
Nautical Twilight 6:35 AM CST 7:02 PM CST
Astronomical Twilight 6:06 AM CST 7:31 PM CST
Moon 6:08 AM CST 5:08 PM CST
Length of Visible Light 11h 28m
Length of Day
10h 36m
Waning Crescent, 2% of the Moon is Illuminated
Jan 29
Waning Crescent
Jan 30
New
Feb 6
First Quarter
Feb 14
Full
Feb 22
Last Quarter

Hourly Weather History & Observations

Time (CST) Temp. Windchill Dew Point Humidity Pressure Visibility Wind Dir Wind Speed Gust Speed Precip Events Conditions
12:15 AM 23.0 °F 15.8 °F 5.0 °F 46% 30.42 in 10.0 mi North 5.8 mph - N/A   Clear
12:35 AM 21.2 °F 16.4 °F 5.0 °F 50% 30.41 in 10.0 mi NNE 3.5 mph - N/A   Clear
12:55 AM 21.2 °F - 5.0 °F 50% 30.41 in 10.0 mi Calm Calm - N/A   Clear
1:15 AM 21.2 °F - 5.0 °F 50% 30.41 in 10.0 mi Calm Calm - N/A   Clear
1:35 AM 19.4 °F - 5.0 °F 54% 30.40 in 10.0 mi Calm Calm - N/A   Clear
1:55 AM 17.6 °F - 5.0 °F 58% 30.40 in 10.0 mi Calm Calm - N/A   Clear
2:15 AM 17.6 °F 10.7 °F 6.8 °F 63% 30.40 in 10.0 mi South 4.6 mph - N/A   Clear
2:35 AM 17.6 °F - 6.8 °F 63% 30.40 in 10.0 mi Calm Calm - N/A   Clear
2:55 AM 17.6 °F - 5.0 °F 58% 30.40 in 10.0 mi Calm Calm - N/A   Clear
3:15 AM 15.8 °F - 6.8 °F 68% 30.39 in 10.0 mi Calm Calm - N/A   Clear
3:35 AM 15.8 °F - 6.8 °F 68% 30.38 in 10.0 mi Calm Calm - N/A   Clear
3:55 AM 15.8 °F - 5.0 °F 62% 30.38 in 10.0 mi Calm Calm - N/A   Clear
4:15 AM 15.8 °F - 5.0 °F 62% 30.38 in 10.0 mi Calm Calm - N/A   Clear
4:35 AM 14.0 °F - 6.8 °F 73% 30.38 in 10.0 mi Calm Calm - N/A   Clear
4:55 AM 14.0 °F - 6.8 °F 73% 30.38 in 10.0 mi Calm Calm - N/A   Clear
5:15 AM 14.0 °F - 6.8 °F 73% 30.38 in 10.0 mi Calm Calm - N/A   Clear
5:35 AM 14.0 °F - 6.8 °F 73% 30.39 in 10.0 mi Calm Calm - N/A   Clear
5:55 AM 12.2 °F - 6.8 °F 79% 30.39 in 10.0 mi Calm Calm - N/A   Clear
6:15 AM 14.0 °F 8.2 °F 6.8 °F 73% 30.39 in 10.0 mi North 3.5 mph - N/A   Clear
6:35 AM 12.2 °F - 6.8 °F 79% 30.39 in 10.0 mi Calm Calm - N/A   Clear
6:55 AM 12.2 °F 6.1 °F 5.0 °F 73% 30.40 in 10.0 mi East 3.5 mph - N/A   Clear
7:15 AM 10.4 °F - 6.8 °F 85% 30.40 in 10.0 mi Calm Calm - N/A   Clear
7:35 AM 10.4 °F - 5.0 °F 79% 30.41 in 10.0 mi Calm Calm - N/A   Clear
7:55 AM 12.2 °F - 6.8 °F 79% 30.41 in 10.0 mi Calm Calm - N/A   Clear
8:15 AM 14.0 °F - 6.8 °F 73% 30.42 in 10.0 mi Calm Calm - N/A   Clear
8:35 AM 14.0 °F - 6.8 °F 73% 30.42 in 10.0 mi Calm Calm - N/A   Clear
8:55 AM 17.6 °F - 10.4 °F 73% 30.41 in 10.0 mi Calm Calm - N/A   Clear
9:15 AM 23.0 °F 17.0 °F 8.6 °F 54% 30.41 in 10.0 mi South 4.6 mph - N/A   Clear
9:35 AM 24.8 °F - 8.6 °F 50% 30.41 in 10.0 mi Calm Calm - N/A   Clear
9:55 AM 28.4 °F 23.3 °F 8.6 °F 43% 30.41 in 10.0 mi SW 4.6 mph - N/A   Clear
10:15 AM 30.2 °F 25.4 °F 8.6 °F 40% 30.42 in 10.0 mi SSW 4.6 mph - N/A   Clear
10:35 AM 32.0 °F 27.5 °F 6.8 °F 35% 30.42 in 10.0 mi SSW 4.6 mph - N/A   Clear
10:55 AM 33.8 °F 28.6 °F 6.8 °F 32% 30.41 in 10.0 mi South 5.8 mph - N/A   Clear
11:15 AM 37.4 °F 31.4 °F 8.6 °F 30% 30.39 in 10.0 mi South 8.1 mph 16.1 mph N/A   Clear
11:35 AM 37.4 °F 30.8 °F 6.8 °F 28% 30.37 in 10.0 mi South 9.2 mph - N/A   Clear
11:55 AM 39.2 °F 32.0 °F 8.6 °F 28% 30.36 in 10.0 mi South 11.5 mph - N/A   Clear
12:15 PM 39.2 °F 33.0 °F 8.6 °F 28% 30.35 in 10.0 mi South 9.2 mph 17.3 mph N/A   Clear
12:35 PM 41.0 °F 33.9 °F 8.6 °F 26% 30.32 in 10.0 mi South 12.7 mph 18.4 mph N/A   Clear
12:55 PM 41.0 °F 32.8 °F 8.6 °F 26% 30.30 in 10.0 mi SSW 16.1 mph 20.7 mph N/A   Clear
1:15 PM 42.8 °F 36.6 °F 6.8 °F 23% 30.30 in 10.0 mi South 11.5 mph 18.4 mph N/A   Clear
1:35 PM 44.6 °F 37.8 °F 8.6 °F 23% 30.27 in 10.0 mi South 15.0 mph 20.7 mph N/A   Clear
1:55 PM 44.6 °F 38.4 °F 8.6 °F 23% 30.26 in 10.0 mi SSW 12.7 mph 20.7 mph N/A   Clear
2:15 PM 44.6 °F 40.2 °F 8.6 °F 23% 30.25 in 10.0 mi South 8.1 mph 20.7 mph N/A   Clear
2:35 PM 44.6 °F 40.2 °F 8.6 °F 23% 30.25 in 10.0 mi SSE 8.1 mph 19.6 mph N/A   Clear
2:55 PM 46.4 °F 41.5 °F 8.6 °F 22% 30.24 in 10.0 mi South 10.4 mph - N/A   Clear
3:15 PM 46.4 °F 40.7 °F 8.6 °F 22% 30.24 in 10.0 mi South 12.7 mph - N/A   Clear
3:35 PM 46.4 °F 41.5 °F 8.6 °F 22% 30.23 in 10.0 mi South 10.4 mph 16.1 mph N/A   Clear
3:55 PM 46.4 °F 41.1 °F 8.6 °F 22% 30.22 in 10.0 mi SE 11.5 mph - N/A   Clear
4:15 PM 46.4 °F 41.1 °F 8.6 °F 22% 30.21 in 10.0 mi SSE 11.5 mph 19.6 mph N/A   Clear
4:35 PM 46.4 °F 40.4 °F 8.6 °F 22% 30.21 in 10.0 mi South 13.8 mph 17.3 mph N/A   Clear
4:55 PM 44.6 °F 37.2 °F 8.6 °F 23% 30.20 in 10.0 mi SSE 17.3 mph - N/A   Clear
5:15 PM 44.6 °F 38.1 °F 8.6 °F 23% 30.19 in 10.0 mi SSE 13.8 mph - N/A   Clear
5:35 PM 42.8 °F 37.0 °F 8.6 °F 25% 30.19 in 10.0 mi SSE 10.4 mph - N/A   Clear
5:55 PM 42.8 °F 37.5 °F 10.4 °F 27% 30.18 in 10.0 mi SSE 9.2 mph - N/A   Clear
6:15 PM 41.0 °F 35.2 °F 10.4 °F 29% 30.18 in 10.0 mi SE 9.2 mph - N/A   Clear
6:35 PM 39.2 °F 32.5 °F 10.4 °F 31% 30.17 in 10.0 mi SE 10.4 mph - N/A   Clear
6:55 PM 39.2 °F 32.5 °F 12.2 °F 33% 30.17 in 10.0 mi SE 10.4 mph - N/A   Partly Cloudy
7:15 PM 39.2 °F 32.5 °F 14.0 °F 36% 30.17 in 10.0 mi SE 10.4 mph - N/A   Partly Cloudy
7:35 PM 37.4 °F 29.8 °F 14.0 °F 38% 30.17 in 10.0 mi SE 11.5 mph - N/A   Scattered Clouds
7:55 PM 37.4 °F 29.3 °F 14.0 °F 38% 30.16 in 10.0 mi SSE 12.7 mph 17.3 mph N/A   Partly Cloudy
8:15 PM 37.4 °F - 14.0 °F 38% 30.16 in 10.0 mi North - - N/A   Partly Cloudy
8:35 PM 37.4 °F 29.8 °F 14.0 °F 38% 30.15 in 10.0 mi SSE 11.5 mph 17.3 mph N/A   Partly Cloudy
8:55 PM 37.4 °F 30.3 °F 14.0 °F 38% 30.16 in 10.0 mi SSE 10.4 mph 18.4 mph N/A   Partly Cloudy
9:15 PM 37.4 °F 30.8 °F 15.8 °F 41% 30.15 in 10.0 mi SSE 9.2 mph - N/A   Clear
9:35 PM 37.4 °F - 15.8 °F 41% 30.15 in 10.0 mi North - - N/A   Partly Cloudy
9:55 PM 37.4 °F 29.3 °F 15.8 °F 41% 30.15 in 10.0 mi SSE 12.7 mph 17.3 mph N/A   Partly Cloudy
10:15 PM 35.6 °F 27.5 °F 15.8 °F 44% 30.15 in 10.0 mi SSE 11.5 mph 17.3 mph N/A   Partly Cloudy
10:35 PM 35.6 °F 28.6 °F 15.8 °F 44% 30.14 in 10.0 mi South 9.2 mph - N/A   Partly Cloudy
10:55 PM 35.6 °F 28.6 °F 15.8 °F 44% 30.15 in 10.0 mi South 9.2 mph - N/A   Mostly Cloudy
11:15 PM 33.8 °F 27.0 °F 15.8 °F 48% 30.14 in 10.0 mi South 8.1 mph - N/A   Mostly Cloudy
11:35 PM 33.8 °F 27.0 °F 15.8 °F 48% 30.14 in 10.0 mi South 8.1 mph - N/A   Mostly Cloudy
11:55 PM 32.0 °F 24.8 °F 15.8 °F 51% 30.13 in 10.0 mi South 8.1 mph - N/A   Mostly Cloudy